Content
SEND FEEDBACK

Daily
Averages
Monthly
Summary
Turkey

BATMAN, TURKEY


Home > Middle East > Turkey
Elevation: 1749 feet     Latitude: 37 55N     Longitude: 041 07E

WEATHER
 
SELECT A DAY
Number of Records: 76,683;   Date Range: 12/6/96 - 9/20/14
 
SHARE

PRINT THIS DATA

[ ← Previous Day ]
WEATHER ALMANAC - FEBRUARY 5, 2013
[ Next Day → ]
[ °C ]   °F
Weather ElementAverageHighLow
Temperature40 °F50 °F (1:50 pm)32 °F (5:20 am)
Dewpoint32.7 °F35.6 °F (8:50 am)28.4 °F (1:50 am)
Humidity77.1 %100 % (6:50 am)46 % (12:50 pm)
Barometer30.23 in30.27 in (12:50 am)30.18 in (4:50 pm)
Wind Speed3.5 mph6.9 mph (9:20 pm)
Weather ElementAverage
Visibility6.2 mi
Wind DirectionE (92.6 °)

Weather ElementTotal
Precipitation---
Heating Degree Days24 (Base 65)
Averaged from 47 records on February 5, 2013
WEATHER CONDITIONS BREAKOUT
WIND DIRECTION BREAKOUT
WEATHER BY HOUR - FEBRUARY 5, 2013
[ °C ]   °F
Local TimeTemperatureDewpointHumidityBarometerVisibilityWind DirectionWind SpeedGust SpeedPrecipitationEventsConditions
12:50 AM35.6 °F30.2 °F81 %30.27 inCalmClear
1:20 AM33.8 °F30.2 °F87 %30.27 inVariable2.3 mphClear
1:50 AM35.6 °F28.4 °F75 %30.24 inVariable2.3 mphClear
2:20 AM35.6 °F30.2 °F81 %30.27 inNW (310°)2.3 mphClear
2:50 AM33.8 °F30.2 °F87 %30.27 inSSE (160°)4.6 mphClear
3:20 AM35.6 °F30.2 °F81 %30.27 inVariable1.2 mphClear
3:50 AM33.8 °F28.4 °F81 %30.24 inNorth (10°)4.6 mphClear
4:20 AM33.8 °F28.4 °F81 %30.24 inNNE (30°)4.6 mphClear
4:50 AM35.6 °F28.4 °F75 %30.24 inNNE (30°)3.5 mphClear
5:20 AM32.0 °F28.4 °F87 %30.24 inVariable2.3 mphClear
5:50 AM32.0 °F30.2 °F93 %30.24 inVariable2.3 mphClear
6:20 AM32.0 °F30.2 °F93 %30.27 inCalmClear
6:50 AM32.0 °F32.0 °F100 %30.27 inSouth (180°)3.5 mphClear
7:20 AM33.8 °F32.0 °F93 %30.27 inVariable1.2 mphClear
7:50 AM35.6 °F33.8 °F93 %30.27 inVariable1.2 mphClear
8:20 AM37.4 °F33.8 °F87 %30.27 in6.2 miVariable2.3 mphMostly Cloudy
8:50 AM37.4 °F35.6 °F93 %30.27 in6.2 miSW (220°)5.8 mphMostly Cloudy
9:20 AM39.2 °F33.8 °F81 %30.27 in6.2 miWSW (240°)3.5 mphMostly Cloudy
9:50 AM41.0 °F33.8 °F76 %30.27 in6.2 miSW (230°)3.5 mphMostly Cloudy
10:20 AM42.8 °F33.8 °F70 %30.27 in6.2 miSW (230°)3.5 mphMostly Cloudy
10:50 AM42.8 °F32.0 °F66 %30.27 in6.2 miWest (260°)4.6 mphMostly Cloudy
11:20 AM44.6 °F33.8 °F66 %30.24 in6.2 miSW (230°)4.6 mphMostly Cloudy
11:50 AM46.4 °F32.0 °F57 %30.24 in6.2 miVariable2.3 mphMostly Cloudy
12:20 PM46.4 °F30.2 °F53 %30.21 in6.2 miVariable2.3 mphMostly Cloudy
12:50 PM48.2 °F28.4 °F46 %30.24 in6.2 miVariable2.3 mphMostly Cloudy
1:20 PM48.2 °F30.2 °F50 %30.24 in6.2 miVariable2.3 mphMostly Cloudy
1:50 PM50.0 °F30.2 °F47 %30.21 in6.2 miNorth (360°)3.5 mphMostly Cloudy
2:20 PM50.0 °F32.0 °F50 %30.21 in6.2 miNNW (340°)4.6 mphMostly Cloudy
2:50 PM50.0 °F33.8 °F54 %30.21 in6.2 miNNE (20°)4.6 mphMostly Cloudy
3:20 PM50.0 °F33.8 °F54 %30.21 in6.2 miNorth (350°)5.8 mphMostly Cloudy
3:50 PM50.0 °F35.6 °F58 %30.21 in6.2 miNorth (350°)3.5 mphMostly Cloudy
4:20 PM46.4 °F35.6 °F66 %30.21 in6.2 miNorth (10°)5.8 mphMostly Cloudy
4:50 PM44.6 °F35.6 °F71 %30.18 in6.2 miNE (40°)4.6 mphScattered Clouds
5:20 PM42.8 °F33.8 °F70 %30.18 in6.2 miEast (80°)5.8 mphScattered Clouds
5:50 PM41.0 °F35.6 °F81 %30.18 inNorth (10°)5.8 mphClear
6:20 PM39.2 °F35.6 °F87 %30.21 inNNE (20°)5.8 mphClear
6:50 PM41.0 °F35.6 °F81 %30.21 inNE (40°)4.6 mphClear
7:20 PM41.0 °F35.6 °F81 %30.21 inNorth (10°)3.5 mphClear
7:50 PM39.2 °F35.6 °F87 %30.21 inNNE (30°)5.8 mphClear
8:20 PM39.2 °F35.6 °F87 %30.21 inNNE (30°)4.6 mphClear
8:50 PM39.2 °F35.6 °F87 %30.21 inNorth (10°)4.6 mphClear
9:20 PM37.4 °F33.8 °F87 %30.21 inENE (60°)6.9 mphClear
9:50 PM41.0 °F35.6 °F81 %30.21 inNNE (30°)3.5 mphClear
10:20 PM39.2 °F35.6 °F87 %30.21 inVariable2.3 mphClear
10:50 PM37.4 °F33.8 °F87 %30.21 inVariable2.3 mphClear
11:20 PM37.4 °F35.6 °F93 %30.21 inWSW (250°)2.3 mphClear
11:50 PM37.4 °F35.6 °F93 %30.21 inSouth (180°)3.5 mphClear
Hourly data recorded from LTCJ, located miles away from Batman, Turkey







STORIES FROM OUR PARTNERS